York, NE

2:37 PM CST on December 04, 2016 (GMT -0600)
York Municipal

Weather History for KJYR - September, 2012

Change the Weather History Date:

Tuesday, September 4, 2012

  Actual Average Record
Temperature  
Mean Temperature 82 °F -  
Max Temperature 102 °F 83 °F 102 °F (2012)
Min Temperature 62 °F 59 °F 44 °F (1974)
Cooling Degree Days 17    
Growing Degree Days 32 (Base 50)    
Moisture  
Dew Point 62 °F    
Average Humidity 64    
Maximum Humidity 100    
Minimum Humidity 17    
Precipitation  
Precipitation 0.00 in - - ()
Sea Level Pressure  
Sea Level Pressure 29.84 in    
Wind  
Wind Speed 5 mph (SSW)    
Max Wind Speed 21 mph    
Max Gust Speed 36 mph    
Visibility 8 miles    
Events Fog    
Averages and records for this station are not official NWS values.
T = Trace of Precipitation, MM = Missing Value Source: NWS Daily Summary

Daily Weather History Graph

Daily Weather History Graph

Search for Another Location

Airport or City:

Trip Planner

Search our weather history database for the weather conditions in past years. The results will help you decide how hot, cold, wet, or windy it might be!

Date:

Astronomy

Sep. 04, 2012 Rise Set
Actual Time 7:00 AM CDT 7:57 PM CDT
Civil Twilight 6:32 AM CDT 8:25 PM CDT
Nautical Twilight 5:59 AM CDT 8:58 PM CDT
Astronomical Twilight 5:24 AM CDT 9:32 PM CDT
Moon 9:48 PM CDT 11:11 AM CDT
Length of Visible Light 13h 52m
Length of Day
12h 56m
Waning Gibbous, 83% of the Moon is Illuminated
Sep 4
Waning Gibbous
Sep 8
Last Quarter
Sep 15
New
Sep 22
First Quarter
Sep 29
Full

Hourly Weather History & Observations

Time (CDT) Temp. Heat Index Dew Point Humidity Pressure Visibility Wind Dir Wind Speed Gust Speed Precip Events Conditions
12:15 AM 68.0 °F - 68.0 °F 100% 29.89 in 10.0 mi Calm Calm - N/A   Clear
12:55 AM 64.4 °F - 64.4 °F 100% 29.89 in 6.0 mi WSW 4.6 mph - N/A   Clear
1:15 AM 66.2 °F - 66.2 °F 100% 29.89 in 6.0 mi SW 5.8 mph - N/A   Mist
1:35 AM 64.4 °F - 64.4 °F 100% 29.89 in 3.0 mi Calm Calm - N/A   Mist
1:55 AM 64.4 °F - 64.4 °F 100% 29.89 in 0.5 mi Calm Calm - N/A Fog Fog
2:15 AM 62.6 °F - 62.6 °F 100% 29.90 in 0.8 mi Calm Calm - N/A   Mist
2:35 AM 64.4 °F - 64.4 °F 100% 29.89 in 0.5 mi Calm Calm - N/A Fog Fog
2:55 AM 62.6 °F - 62.6 °F 100% 29.89 in 0.8 mi Calm Calm - N/A   Mist
3:15 AM 62.6 °F - 62.6 °F 100% 29.89 in 0.2 mi Calm Calm - N/A Fog Fog
3:35 AM 62.6 °F - 62.6 °F 100% 29.89 in 0.2 mi Calm Calm - N/A Fog Fog
3:55 AM 62.6 °F - 62.6 °F 100% 29.89 in 1.0 mi WSW 4.6 mph - N/A   Mist
4:15 AM 64.4 °F - 64.4 °F 100% 29.89 in 4.0 mi SW 3.5 mph - N/A   Mist
4:35 AM 64.4 °F - 64.4 °F 100% 29.88 in 3.0 mi SSW 5.8 mph - N/A   Clear
4:55 AM 64.4 °F - 64.4 °F 100% 29.89 in 5.0 mi SW 5.8 mph - N/A   Clear
5:15 AM 64.4 °F - 64.4 °F 100% 29.89 in 5.0 mi SW 5.8 mph - N/A   Clear
5:35 AM 64.4 °F - 64.4 °F 100% 29.89 in 5.0 mi SW 6.9 mph - N/A   Clear
5:55 AM 64.4 °F - 64.4 °F 100% 29.89 in 5.0 mi Calm Calm - N/A   Clear
6:35 AM 66.2 °F - 66.2 °F 100% 29.89 in 5.0 mi Calm Calm - N/A   Clear
6:55 AM 66.2 °F - 66.2 °F 100% 29.89 in 6.0 mi SSW 6.9 mph - N/A   Clear
7:15 AM 64.4 °F - 64.4 °F 100% 29.89 in 3.0 mi SE 5.8 mph - N/A   Clear
7:35 AM 66.2 °F - 66.2 °F 100% 29.90 in 5.0 mi Calm Calm - N/A   Clear
7:55 AM 66.2 °F - 66.2 °F 100% 29.91 in 2.5 mi Calm Calm - N/A   Clear
8:15 AM 66.2 °F - 66.2 °F 100% 29.91 in 3.0 mi Calm Calm - N/A   Clear
8:35 AM 68.0 °F - 68.0 °F 100% 29.91 in 4.0 mi Calm Calm - N/A   Clear
8:55 AM 69.8 °F - 69.8 °F 100% 29.91 in 7.0 mi SE 3.5 mph - N/A   Clear
9:15 AM 71.6 °F - 71.6 °F 100% 29.90 in 10.0 mi SSE 3.5 mph - N/A   Clear
9:35 AM 73.4 °F - 73.4 °F 100% 29.90 in 10.0 mi Calm Calm - N/A   Clear
9:55 AM 75.2 °F - 73.4 °F 94% 29.91 in 10.0 mi Calm Calm - N/A   Clear
10:15 AM 77.0 °F - 71.6 °F 83% 29.90 in 10.0 mi Calm Calm - N/A   Clear
10:35 AM 78.8 °F - 71.6 °F 78% 29.90 in 10.0 mi ESE 3.5 mph - N/A   Clear
10:55 AM 80.6 °F 83.9 °F 69.8 °F 70% 29.90 in 10.0 mi South 4.6 mph - N/A   Clear
11:35 AM 84.2 °F 86.6 °F 66.2 °F 55% 29.89 in 10.0 mi Calm Calm - N/A   Clear
11:55 AM 86.0 °F 88.2 °F 66.2 °F 51% 29.88 in 10.0 mi Calm Calm - N/A   Clear
12:15 PM 89.6 °F 91.1 °F 64.4 °F 43% 29.87 in 10.0 mi South 3.5 mph - N/A   Clear
12:35 PM 89.6 °F 91.1 °F 64.4 °F 43% 29.86 in 10.0 mi SSE 9.2 mph - N/A   Clear
12:55 PM 91.4 °F 93.2 °F 64.4 °F 41% 29.86 in 10.0 mi South 5.8 mph - N/A   Clear
1:15 PM 93.2 °F 94.1 °F 62.6 °F 36% 29.85 in 10.0 mi South 5.8 mph - N/A   Clear
1:35 PM 93.2 °F 93.3 °F 60.8 °F 34% 29.84 in 10.0 mi SE 4.6 mph - N/A   Clear
1:55 PM 96.8 °F 96.2 °F 59.0 °F 28% 29.83 in 10.0 mi South 6.9 mph - N/A   Clear
2:15 PM 98.6 °F 97.6 °F 57.2 °F 25% 29.82 in 10.0 mi South 12.7 mph - N/A   Clear
2:35 PM 98.6 °F 97.2 °F 55.4 °F 24% 29.82 in 10.0 mi SW 10.4 mph - N/A   Clear
2:55 PM 98.6 °F 97.6 °F 57.2 °F 25% 29.81 in 10.0 mi South 10.4 mph - N/A   Clear
3:15 PM 100.4 °F 99.7 °F 57.2 °F 24% 29.80 in 10.0 mi SSW 11.5 mph 19.6 mph N/A   Clear
3:35 PM 100.4 °F 99.7 °F 57.2 °F 24% 29.79 in 10.0 mi South 13.8 mph 18.4 mph N/A   Clear
3:55 PM 100.4 °F 98.4 °F 53.6 °F 21% 29.79 in 10.0 mi SSW 11.5 mph - N/A   Clear
4:15 PM 102.2 °F - 50.0 °F 17% 29.78 in 10.0 mi SSW 15.0 mph 20.7 mph N/A   Clear
4:35 PM 100.4 °F - 50.0 °F 18% 29.78 in 10.0 mi SSW 11.5 mph - N/A   Clear
5:15 PM 100.4 °F 98.8 °F 55.4 °F 22% 29.76 in 10.0 mi South 13.8 mph 18.4 mph N/A   Clear
5:35 PM 100.4 °F 98.4 °F 53.6 °F 21% 29.75 in 10.0 mi South 16.1 mph - N/A   Clear
5:55 PM 98.6 °F 97.2 °F 55.4 °F 24% 29.75 in 10.0 mi South 15.0 mph 20.7 mph N/A   Clear
6:15 PM 98.6 °F 96.4 °F 53.6 °F 22% 29.75 in 10.0 mi South 10.4 mph - N/A   Clear
6:35 PM 93.2 °F 91.3 °F 55.4 °F 28% 29.75 in 10.0 mi SW 6.9 mph - N/A   Clear
6:55 PM 91.4 °F 89.9 °F 57.2 °F 31% 29.75 in 10.0 mi SSW 5.8 mph - N/A   Clear
7:15 PM 91.4 °F 89.4 °F 55.4 °F 29% 29.74 in 10.0 mi South 4.6 mph - N/A   Clear
7:35 PM 89.6 °F 88.1 °F 57.2 °F 33% 29.74 in 10.0 mi South 5.8 mph - N/A   Clear
7:55 PM 87.8 °F 86.5 °F 57.2 °F 35% 29.74 in 10.0 mi South 10.4 mph - N/A   Clear
8:15 PM 87.8 °F 87.1 °F 59.0 °F 38% 29.75 in 10.0 mi South 12.7 mph - N/A   Clear
8:35 PM 86.0 °F 86.1 °F 60.8 °F 43% 29.77 in 4.0 mi SSW 20.7 mph 35.7 mph N/A   Haze
8:55 PM 82.4 °F 82.5 °F 59.0 °F 45% 29.78 in 9.0 mi SSW 20.7 mph 28.8 mph N/A   Clear
9:15 PM 80.6 °F 80.8 °F 57.2 °F 45% 29.78 in 10.0 mi SSW 18.4 mph 25.3 mph N/A   Clear
9:35 PM 80.6 °F 80.5 °F 55.4 °F 42% 29.78 in 10.0 mi SSW 17.3 mph 25.3 mph N/A   Clear
9:55 PM 78.8 °F - 55.4 °F 44% 29.79 in 10.0 mi SSW 15.0 mph 20.7 mph N/A   Clear
10:15 PM 77.0 °F - 55.4 °F 47% 29.79 in 10.0 mi SSW 17.3 mph 23.0 mph N/A   Clear
10:55 PM 75.2 °F - 55.4 °F 50% 29.79 in 10.0 mi SSW 12.7 mph - N/A   Clear
11:15 PM 73.4 °F - 55.4 °F 53% 29.78 in 10.0 mi SSW 10.4 mph - N/A   Clear
11:35 PM 73.4 °F - 55.4 °F 53% 29.78 in 10.0 mi SW 9.2 mph - N/A   Unknown
11:55 PM 73.4 °F - 53.6 °F 50% 29.78 in 10.0 mi SSW 11.5 mph - N/A   Clear